Location: Hopewell Observatory
(38.8698°N, 77.6988°W)
Time: 15:29:56
(UTC-04:00)

Cosmos 1515 - Pass Details

Date: 26 May 2018
Orbit: 507 x 519 km, 82.5° (Epoch: 14 October)

Event Time Altitude Azimuth Distance (km) Brightness Sun altitude
Exits shadow 21:55:51 25° 161° (SSE) 1,082 4.8 -14.9°
Maximum altitude 21:57:51 53° 94° (E) 645 3.8 -15.2°
Drops below altitude 10° 22:01:37 10° 17° (NNE) 1,756 6.7 -15.7°
Sets 22:03:47 0° 13° (NNE) 2,646 7.8 -16.0°
